THORAD AGENA D DEB, 19948

Orbit data source: Space-Track

THORAD AGENA D DEB, 19948 is space debris in SSO originally from a launch on Wed, 08 Apr 1970 UTC launched from the Air Force Western Test Range (AFWTR). Debris objects in space refer to the collection of defunct objects orbiting the Earth. Examples of debris include non-operational satellites, rocket bodies, and fragments generated from explosions, collisions, or faulty payload assembly.

Loading next visibility...
Identifier
19948, 1970-025QD
Orbit
SSO
Country
Flag of USUS
Related business
Manufacturer
Unknown
Mission
Spacecraft
Bus & Motor
Unknown
Mass
Unknown
Launch date (UTC)
1970-04-08 (56 years ago)
Launch vehicle
Unknown
Launch site
Air Force Western Test Range (AFWTR)
Object type
Payload
Rocket body
Debris
Shape & HBR
Unknown shape, 0.050 m
Radar Cross Section
Medium (>0.1 m² and <1 m²)

Expand to show TLE details & history
Last TLE update: 2 days ago

TLE from 2 days ago
0 THORAD AGENA D DEB
1 19948U 70025QD  26265.39228164  .00000092  00000-0  42397-3 0  9990
2 19948  99.5729  87.8489 0411400 200.4841 280.6733 12.74889121651900
Epoch: 2026-09-22T09:24Z
TLE epoch observation values (Epoch: 2026-09-22T09:24:53.133Z)
Latitude
62.04388°
Longitude
143.80152°
Altitude
1,326.42 km
Speed
7.221 km/s
True Right ascension
19h 05m 07s
True Declination
61° 54' 42"
Sunlit
Object was in daylight at epoch
Visualization orbit readout
Latitude
Unknown
Longitude
Unknown
Altitude
Unknown
Speed
Unknown
Apparent Right ascension
Unknown
Apparent Declination
Unknown
Sunlit
N/A
Visualization observer readout
Local Sidereal Time
07:27:21
Azimuth
Unknown
Elevation
Unknown
Doppler factor
Unknown
Orbital elements
Apogee altitude
1,677.803 km
Perigee altitude
1,041.152 km
Semi-major axis
7,737.614 km
Eccentricity
0.04114
Inclination
99.5729°
RAAN
87.8489°
Arg. of periapsis
200.4841°
True anomaly
276.00122°
Mean anomaly
280.6733°
Eccentric anomaly
278.34109°
Mean motion
3.18884 °/min
Orbital period
112.89 mins
BSTAR
0.00042397

Documentation

Showing up to 5 results
|